Home > Weather > Mumbai > Past weeks

Flag for India Past Weather in Mumbai, Maharashtra, India — Yesterday and Last 2 Weeks

Now
77 °F

Rain. More clouds than sun.


Feels Like: 78 °F
Forecast: 80 / 83 °F
Wind: 9 mph from North

Location: Mumbai / Santacruz

Current Time: Jul 29, 2016 at 3:46:14 PM

Latest Report: Jul 29, 2016 at 3:00 PM


Visibility: 1 mi

Pressure: 29.68 "Hg

Humidity: 94%

Dew Point: 75 °F

Location of MumbaiLocation

Past Weather in Mumbai — Graph

°F

Mumbai Temperature Yesterday

Maximum temperature yesterday: 84 °F (at 1:30 PM)
Minimum temperature yesterday: 75 °F (at 6:30 AM)
Average temperature yesterday: 79 °F

High & Low Weather Summary for the Past Weeks

 TemperatureHumidityPressure
High86 °F (Jul 15, 1:30 PM)100% (Jul 19, 5:30 AM)29.83 "Hg (Jul 19, 5:30 AM)
Low75 °F (Jul 21, 3:30 PM)70% (Jul 16, 12:30 PM)29.59 "Hg (Jul 23, 4:00 PM)
Average81 °F88%29.70 "Hg
* Reported Jul 14 2:30 PM — Jul 29 2:30 PM, Mumbai, Weather by CustomWeather, © 2016

Note: Actual official high and low records may vary slightly from our data, if they occured in-between our weather recording intervals... More about our weather records

Advertising

Mumbai Weather History for the Previous 24 Hours

Scroll right to see more
 ConditionsComfort  
Time TempWeatherWind HumidityBarometerVisibility
2:30 PM
Fri, Jul 29
84 °FScattered showers. More clouds than sun.No wind79%29.68 "Hg2 mi
2:00 PM82 °FMore clouds than sun.5 mph84%29.71 "Hg2 mi
1:30 PM82 °FMore clouds than sun.3 mph84%29.71 "Hg2 mi
1:00 PM81 °FMore clouds than sun.5 mph89%29.74 "Hg2 mi
12:30 PM81 °FMore clouds than sun.3 mph89%29.74 "Hg1 mi
12:00 PM82 °FMore clouds than sun.5 mph84%29.74 "Hg1 mi
11:30 AM81 °FDrizzle. More clouds than sun.5 mph89%29.77 "Hg1 mi
11:00 AM79 °FDrizzle. More clouds than sun.5 mph94%29.77 "Hg1 mi
10:30 AM77 °FLight rain. More clouds than sun.6 mph100%29.77 "Hg1 mi
10:00 AM77 °FRain. More clouds than sun.5 mph94%29.77 "Hg1 mi
9:30 AM75 °FRain. More clouds than sun.7 mph100%29.77 "Hg1 mi
9:00 AM75 °FRain. More clouds than sun.10 mph100%29.77 "Hg1 mi
8:30 AM75 °FRain. More clouds than sun.9 mph100%29.77 "Hg1 mi
8:00 AM75 °FRain. More clouds than sun.6 mph100%29.74 "Hg1 mi
7:30 AM77 °FRain. More clouds than sun.7 mph100%29.74 "Hg1 mi
7:00 AM77 °FScattered showers. More clouds than sun.7 mph94%29.74 "Hg1 mi
6:30 AM77 °FLight rain. Mostly cloudy.6 mph94%29.71 "Hg1 mi
6:00 AM75 °FLight rain. Mostly cloudy.6 mph100%29.71 "Hg1 mi
5:30 AM75 °FRain. Mostly cloudy.3 mph100%29.71 "Hg1 mi
5:00 AM75 °FRain. Mostly cloudy.5 mph100%29.71 "Hg1 mi
4:30 AM75 °FHeavy rain. Mostly cloudy.6 mph100%29.71 "Hg1 mi
4:00 AM75 °FRain. Mostly cloudy.3 mph100%29.71 "Hg1 mi
3:30 AM77 °FRain. Mostly cloudy.6 mph94%29.71 "Hg1 mi
3:00 AM75 °FRain. Mostly cloudy.6 mph100%29.71 "Hg1 mi
2:30 AM77 °FRain showers. Mostly cloudy.3 mph100%29.71 "Hg1 mi
2:00 AM77 °FLight rain. Mostly cloudy.5 mph100%29.71 "Hg1 mi
1:30 AM77 °FRain. Mostly cloudy.3 mph100%29.74 "Hg1 mi
1:00 AM77 °FRain. Mostly cloudy.5 mph94%29.74 "Hg1 mi
12:30 AM77 °FLight rain. Mostly cloudy.3 mph94%29.74 "Hg1 mi
12:00 AM77 °FLight rain. Mostly cloudy.5 mph100%29.74 "Hg1 mi
11:30 PM
Thu, Jul 28
77 °FLight rain. Mostly cloudy.7 mph100%29.74 "Hg1 mi
11:00 PM77 °FLight rain. Mostly cloudy.5 mph100%29.77 "Hg1 mi
10:30 PM77 °FLight rain. Mostly cloudy.No wind94%29.77 "Hg1 mi
10:00 PM77 °FLight rain. Mostly cloudy.No wind94%29.77 "Hg1 mi
9:30 PM77 °FLight rain. Mostly cloudy.6 mph94%29.74 "Hg1 mi
9:00 PM77 °FLight rain. Mostly cloudy.9 mph94%29.74 "Hg2 mi
8:30 PM77 °FLight rain. Mostly cloudy.8 mph89%29.74 "Hg1 mi
8:00 PM77 °FDrizzle. Mostly cloudy.8 mph89%29.74 "Hg1 mi
7:30 PM77 °FThunderstorms. Broken clouds.10 mph89%29.71 "Hg1 mi
7:00 PM77 °FThunderstorms. Broken clouds.12 mph89%29.71 "Hg1 mi
6:30 PM81 °FScattered showers. Broken clouds.9 mph89%29.68 "Hg2 mi
6:00 PM81 °FBroken clouds.10 mph89%29.68 "Hg2 mi
5:30 PM82 °FBroken clouds.12 mph84%29.68 "Hg2 mi
5:00 PM84 °FBroken clouds.8 mph74%29.65 "Hg2 mi
4:30 PM84 °FBroken clouds.5 mph79%29.68 "Hg2 mi
4:00 PM82 °FBroken clouds.5 mph79%29.68 "Hg2 mi
3:30 PM82 °FBroken clouds.6 mph79%29.71 "Hg2 mi
3:00 PM81 °FBroken clouds.6 mph79%29.71 "Hg2 mi
Weather by CustomWeather, © 2016

See weather overviewHow to use our weather pages